Accueil
METAR-TAF:

METAR-TAF

Aéroports :

Gilmer Municipal Airport (Fox Stephens Field)

Gilmer, Texas, États-Unis

latitude: 32-41-56N, longitude: 094-56-55W, altitude: 127 m

Observation

Le bulletin a été fait il y a 21 minutes, à 15:15 UTC
Vent 7 kt de sud/sud-est
Température 16°C
Humidité 88%
Pression 1013 hPa
Visibilité: 16.1 km
Ciel couvert à une hauteur de 800 ft

METAR: KJXI 171515Z AUTO 16007KT 10SM OVC008 16/14 A2990 RMK AO2 T01550142

Heure: 09:36 (15:36 UTC)


TAF: absent

Observations et prévisions météorologiques de plus de 4000 aéroports (messages METAR et TAF).

Les stations disponibles sont représentées par des disques jaunes et rouges sur la carte.

Passer la souris dessus pour voir le nom de la station.

Cliquer dessus pour voir les observations et prévisions météorologiques.

Pour changer de carte: cliquez sur les boutons verts avec une croix noire pour zoomer, sur le bouton vert avec un tiret pour effectuer un zoom arrière, ou sur les flèches vertes pour les cartes adjacentes.


METAR-TAF: